| time (UTC) | temp F | wind direction | speed MPH | gust MPH | rain 1hr in | rain 24hr in | rain mn in | humidity % | barometer mb |
| 20260903040100 | 65 | 0.0 | 0.0 | 0.00 | 0.00 | 0.00 | 67 | 1020.7 | |
| 20260903034601 | 66 | 0.0 | 0.0 | 0.00 | 0.00 | 0.00 | 67 | 1020.5 | |
| 20260903033051 | 67 | 0.0 | 0.0 | 0.00 | 0.00 | 0.00 | 64 | 1020.4 | |
| 20260903031549 | 67 | 0.0 | 0.0 | 0.00 | 0.00 | 0.00 | 62 | 1020.3 | |
| 20260903030043 | 68 | 0.0 | 0.0 | 0.00 | 0.00 | 0.00 | 61 | 1020.1 | |
| 20260903024538 | 69 | 0.0 | 0.0 | 0.00 | 0.00 | 0.00 | 60 | 1020.1 | |
| 20260903023034 | 70 | 0.0 | 0.0 | 0.00 | 0.00 | 0.00 | 58 | 1019.9 | |
| 20260903021530 | 71 | 0.0 | 0.0 | 0.00 | 0.00 | 0.00 | 57 | 1019.8 | |
| 20260903020045 | 72 | 0.0 | 0.0 | 0.00 | 0.00 | 0.00 | 55 | 1019.8 | |
| 20260903014520 | 73 | 0.0 | 0.0 | 0.00 | 0.00 | 0.00 | 51 | 1019.7 | |
| 20260903013016 | 75 | 0.0 | 0.0 | 0.00 | 0.00 | 0.00 | 51 | 1019.7 | |
| 20260903011512 | 75 | 0.0 | 0.0 | 0.00 | 0.00 | 0.00 | 51 | 1019.7 | |
| 20260903010007 | 76 | 0.0 | 0.0 | 0.00 | 0.00 | 0.00 | 48 | 1019.5 | |
| 20260903004502 | 77 | 0.0 | 0.0 | 0.00 | 0.00 | 0.00 | 47 | 1019.5 | |
| 20260903003100 | 78 | 0.0 | 0.0 | 0.00 | 0.00 | 0.00 | 46 | 1019.5 | |
| 20260903001554 | 79 | 0.0 | 0.0 | 0.00 | 0.00 | 0.00 | 45 | 1019.5 | |
| 20260903000050 | 79 | 0.0 | 0.0 | 0.00 | 0.00 | 0.00 | 44 | 1019.5 | |
| 20260902234554 | 79 | 0.0 | 0.0 | 0.00 | 0.00 | 0.00 | 44 | 1019.6 | |
| 20260902233041 | 80 | 0.0 | 0.0 | 0.00 | 0.00 | 0.00 | 44 | 1019.7 | |
| 20260902231538 | 80 | 0.0 | 0.0 | 0.00 | 0.00 | 0.00 | 42 | 1019.7 | |
| 20260902230034 | 81 | 0.0 | 0.0 | 0.00 | 0.00 | 0.00 | 43 | 1019.8 | |
| 20260902224528 | 81 | 0.0 | 0.0 | 0.00 | 0.00 | 0.00 | 41 | 1019.8 | |
| 20260902223029 | 81 | 0.0 | 0.0 | 0.00 | 0.00 | 0.00 | 40 | 1020.1 | |
| 20260902221525 | 83 | 0.0 | 0.0 | 0.00 | 0.00 | 0.00 | 39 | 1020.1 | |
| 20260902220020 | 83 | 0.0 | 0.0 | 0.00 | 0.00 | 0.00 | 39 | 1020.2 | |
| 20260902214510 | 84 | 0.0 | 0.0 | 0.00 | 0.00 | 0.00 | 36 | 1020.3 | |
| 20260902213006 | 84 | 0.0 | 0.0 | 0.00 | 0.00 | 0.00 | 34 | 1020.3 | |
| 20260902211502 | 86 | 0.0 | 0.0 | 0.00 | 0.00 | 0.00 | 32 | 1020.2 | |
| 20260902210058 | 86 | 0.0 | 0.0 | 0.00 | 0.00 | 0.00 | 30 | 1020.4 | |
| 20260902204553 | 86 | 0.0 | 0.0 | 0.00 | 0.00 | 0.00 | 32 | 1020.3 | |
| 20260902203049 | 85 | 0.0 | 0.0 | 0.00 | 0.00 | 0.00 | 27 | 1020.5 | |
| 20260902201555 | 85 | 0.0 | 0.0 | 0.00 | 0.00 | 0.00 | 28 | 1020.7 | |
| 20260902200040 | 84 | 0.0 | 0.0 | 0.00 | 0.00 | 0.00 | 30 | 1020.9 | |
| 20260902194536 | 84 | 0.0 | 0.0 | 0.00 | 0.00 | 0.00 | 29 | 1021.1 | |
| 20260902193032 | 83 | 0.0 | 0.0 | 0.00 | 0.00 | 0.00 | 30 | 1021.3 | |
| 20260902191527 | 83 | 0.0 | 0.0 | 0.00 | 0.00 | 0.00 | 28 | 1021.4 | |
| 20260902190026 | 82 | 0.0 | 0.0 | 0.00 | 0.00 | 0.00 | 26 | 1021.6 | |
| 20260902184519 | 81 | 0.0 | 0.0 | 0.00 | 0.00 | 0.00 | 33 | 1021.8 | |
| 20260902183019 | 82 | 0.0 | 0.0 | 0.00 | 0.00 | 0.00 | 31 | 1021.8 | |
| 20260902181510 | 81 | 0.0 | 0.0 | 0.00 | 0.00 | 0.00 | 30 | 1021.9 | |
| 20260902180007 | 81 | 0.0 | 0.0 | 0.00 | 0.00 | 0.00 | 26 | 1021.9 | |
| 20260902174500 | 80 | 0.0 | 0.0 | 0.00 | 0.00 | 0.00 | 29 | 1021.8 | |
| 20260902173057 | 78 | 0.0 | 0.0 | 0.00 | 0.00 | 0.00 | 32 | 1021.8 | |
| 20260902171605 | 77 | 0.0 | 0.0 | 0.00 | 0.00 | 0.00 | 33 | 1021.7 | |
| 20260902170048 | 75 | 0.0 | 0.0 | 0.00 | 0.00 | 0.00 | 35 | 1021.7 | |
| 20260902164544 | 74 | 0.0 | 0.0 | 0.00 | 0.00 | 0.00 | 37 | 1021.8 | |
| 20260902163040 | 72 | 0.0 | 0.0 | 0.00 | 0.00 | 0.00 | 39 | 1021.7 | |
| 20260902161535 | 71 | 0.0 | 0.0 | 0.00 | 0.00 | 0.00 | 43 | 1021.8 | |
| 20260902160030 | 69 | 0.0 | 0.0 | 0.00 | 0.00 | 0.00 | 39 | 1021.8 | |
| 20260902154527 | 70 | 0.0 | 0.0 | 0.00 | 0.00 | 0.00 | 35 | 1021.6 | |
| 20260902153021 | 69 | 0.0 | 0.0 | 0.00 | 0.00 | 0.00 | 37 | 1021.5 | |
| 20260902151518 | 69 | 0.0 | 0.0 | 0.00 | 0.00 | 0.00 | 35 | 1021.4 | |
| 20260902150016 | 67 | 0.0 | 0.0 | 0.00 | 0.00 | 0.00 | 38 | 1021.6 | |
| 20260902144509 | 63 | 0.0 | 0.0 | 0.00 | 0.00 | 0.00 | 38 | 1021.6 | |
| 20260902143006 | 59 | 0.0 | 0.0 | 0.00 | 0.00 | 0.00 | 44 | 1021.7 | |
| 20260902141601 | 57 | 0.0 | 0.0 | 0.00 | 0.00 | 0.00 | 42 | 1021.6 | |
| 20260902140056 | 57 | 0.0 | 0.0 | 0.00 | 0.00 | 0.00 | 43 | 1021.4 | |
| 20260902134552 | 57 | 0.0 | 0.0 | 0.00 | 0.00 | 0.00 | 41 | 1021.1 | |
| 20260902133055 | 57 | 0.0 | 0.0 | 0.00 | 0.00 | 0.00 | 42 | 1020.8 | |
| 20260902131543 | 57 | 0.0 | 0.0 | 0.00 | 0.00 | 0.00 | 42 | 1020.6 | |
| 20260902130038 | 57 | 0.0 | 0.0 | 0.00 | 0.00 | 0.00 | 43 | 1020.6 | |
| 20260902124536 | 57 | 0.0 | 0.0 | 0.00 | 0.00 | 0.00 | 44 | 1020.6 | |
| 20260902123031 | 57 | 0.0 | 0.0 | 0.00 | 0.00 | 0.00 | 42 | 1020.7 | |
| 20260902121525 | 57 | 0.0 | 0.0 | 0.00 | 0.00 | 0.00 | 45 | 1020.6 | |
| 20260902120025 | 57 | 0.0 | 0.0 | 0.00 | 0.00 | 0.00 | 48 | 1020.6 | |
| 20260902114516 | 57 | 0.0 | 0.0 | 0.00 | 0.00 | 0.00 | 49 | 1020.7 | |
| 20260902113012 | 57 | 0.0 | 0.0 | 0.00 | 0.00 | 0.00 | 53 | 1020.6 | |
| 20260902111523 | 56 | 0.0 | 0.0 | 0.00 | 0.00 | 0.00 | 55 | 1020.7 | |
| 20260902110010 | 56 | 0.0 | 0.0 | 0.00 | 0.00 | 0.00 | 57 | 1020.8 | |
| 20260902104610 | 56 | 0.0 | 0.0 | 0.00 | 0.00 | 0.00 | 56 | 1020.9 | |
| 20260902103054 | 57 | 0.0 | 0.0 | 0.00 | 0.00 | 0.00 | 60 | 1021.0 | |
| 20260902101550 | 57 | 0.0 | 0.0 | 0.00 | 0.00 | 0.00 | 62 | 1021.1 | |
| 20260902100046 | 57 | 0.0 | 0.0 | 0.00 | 0.00 | 0.00 | 61 | 1021.2 | |
| 20260902094545 | 57 | 0.0 | 0.0 | 0.00 | 0.00 | 0.00 | 63 | 1021.1 | |
| 20260902093040 | 58 | 0.0 | 0.0 | 0.00 | 0.00 | 0.00 | 61 | 1021.1 | |
| 20260902091533 | 58 | 0.0 | 0.0 | 0.00 | 0.00 | 0.00 | 61 | 1021.3 | |
| 20260902090029 | 59 | 0.0 | 0.0 | 0.00 | 0.00 | 0.00 | 64 | 1021.3 | |
| 20260902084533 | 59 | 0.0 | 0.0 | 0.00 | 0.00 | 0.00 | 63 | 1021.3 | |
| 20260902083019 | 59 | 0.0 | 0.0 | 0.00 | 0.00 | 0.00 | 64 | 1021.2 | |
| 20260902081516 | 60 | 0.0 | 0.0 | 0.00 | 0.00 | 0.00 | 65 | 1021.3 | |
| 20260902080011 | 60 | 0.0 | 0.0 | 0.00 | 0.00 | 0.00 | 65 | 1021.4 | |
| 20260902074506 | 61 | 0.0 | 0.0 | 0.00 | 0.00 | 0.00 | 64 | 1021.4 | |
| 20260902073002 | 61 | 0.0 | 0.0 | 0.00 | 0.00 | 0.00 | 65 | 1021.3 | |
| 20260902071559 | 61 | 0.0 | 0.0 | 0.00 | 0.00 | 0.00 | 65 | 1021.1 | |
| 20260902070053 | 62 | 0.0 | 0.0 | 0.00 | 0.00 | 0.00 | 75 | 1021.0 | |
| 20260902064549 | 62 | 0.0 | 0.0 | 0.00 | 0.00 | 0.00 | 78 | 1021.1 | |
| 20260902063044 | 62 | 0.0 | 0.0 | 0.00 | 0.00 | 0.00 | 74 | 1021.1 | |
| 20260902060037 | 63 | 0.0 | 0.0 | 0.00 | 0.00 | 0.00 | 74 | 1020.7 | |
| 20260902054543 | 64 | 0.0 | 0.0 | 0.00 | 0.00 | 0.00 | 72 | 1020.7 | |
| 20260902053027 | 64 | 0.0 | 0.0 | 0.00 | 0.00 | 0.00 | 70 | 1020.6 | |
| 20260902051523 | 65 | 0.0 | 0.0 | 0.00 | 0.00 | 0.00 | 71 | 1020.6 | |
| 20260902050019 | 65 | 0.0 | 0.0 | 0.00 | 0.00 | 0.00 | 70 | 1020.6 | |
| 20260902044514 | 66 | 0.0 | 0.0 | 0.00 | 0.00 | 0.00 | 68 | 1020.7 | |
| 20260902043015 | 67 | 0.0 | 0.0 | 0.00 | 0.00 | 0.00 | 67 | 1020.6 | |
| 20260902041505 | 68 | 0.0 | 0.0 | 0.00 | 0.00 | 0.00 | 66 | 1020.3 |